Change the Weather History Date:

Tuesday, October 28, 2014

  Actual Average Record
Temperature  
Mean Temperature 61 °F 50 °F  
Max Temperature 72 °F 58 °F 81 °F (1927)
Min Temperature 49 °F 42 °F 24 °F (1976)
Degree Days  
Heating Degree Days 4 15  
Month to date heating degree days 303 310  
Since 1 July heating degree days 446 413  
Cooling Degree Days 0 0  
Month to date cooling degree days 4 10  
Year to date cooling degree days 657 814  
Growing Degree Days 12 (Base 50)    
Moisture  
Dew Point 53 °F    
Average Humidity 68    
Maximum Humidity 83    
Minimum Humidity 53    
Precipitation  
Precipitation 0.04 in 0.10 in 1.27 in (1984)
Month to date precipitation 2.43 2.77  
Year to date precipitation 38.01 32.12  
Snow  
Snow 0.00 in 0.00 in - ()
Month to date snowfall 0.0 0.1  
Since 1 July snowfall 0.0 0.1  
Since 1 September snowfall 0.0 0.1  
Snow Depth 0.00 in    
Sea Level Pressure  
Sea Level Pressure 29.85 in    
Wind  
Wind Speed 13 mph (SW)    
Max Wind Speed 25 mph    
Max Gust Speed 34 mph    
Visibility 10 miles    
Events Rain    
T = Trace of Precipitation, MM = Missing Value Source: NWS Daily Summary

Daily Weather History Graph

Daily Weather History Graph

Search for Another Location

Airport or City:

Trip Planner

Search our weather history database for the weather conditions in past years. The results will help you decide how hot, cold, wet, or windy it might be!

Date:

Astronomy

Oct. 28, 2014 Rise Set
Actual Time 7:54 AM EDT 6:27 PM EDT
Civil Twilight 7:25 AM EDT 6:56 PM EDT
Nautical Twilight 6:53 AM EDT 7:28 PM EDT
Astronomical Twilight 6:21 AM EDT 8:00 PM EDT
Moon 12:23 PM EDT (10/28) 10:30 PM EDT (10/28)
Length of Visible Light 11h 30m
Length of Day
10h 33m
Waxing Crescent, 24% of the Moon is Illuminated
Oct 28
Waxing Crescent
Oct 30
First Quarter
Nov 6
Full
Nov 14
Last Quarter
Nov 22
New

Hourly Weather History & Observations

Time (EDT) Temp. Dew Point Humidity Pressure Visibility Wind Dir Wind Speed Gust Speed Precip Events Conditions
12:51 AM 70.0 °F 55.0 °F 59% 29.81 in 10.0 mi SSW 16.1 mph - N/A   Overcast
1:51 AM 69.1 °F 55.0 °F 61% 29.83 in 10.0 mi SSW 11.5 mph - N/A   Mostly Cloudy
2:51 AM 68.0 °F 55.0 °F 63% 29.83 in 10.0 mi SSW 12.7 mph 19.6 mph N/A   Overcast
3:51 AM 68.0 °F 55.0 °F 63% 29.83 in 10.0 mi South 9.2 mph - N/A   Overcast
4:51 AM 66.9 °F 55.0 °F 66% 29.82 in 10.0 mi South 10.4 mph - N/A   Overcast
5:51 AM 66.9 °F 55.0 °F 66% 29.83 in 10.0 mi SSW 10.4 mph - N/A   Overcast
6:51 AM 66.9 °F 55.9 °F 68% 29.83 in 10.0 mi South 12.7 mph - N/A   Mostly Cloudy
7:51 AM 66.9 °F 55.9 °F 68% 29.81 in 10.0 mi South 15.0 mph - N/A   Mostly Cloudy
8:51 AM 66.9 °F 55.9 °F 68% 29.83 in 10.0 mi SSW 13.8 mph - N/A   Mostly Cloudy
9:51 AM 68.0 °F 57.0 °F 68% 29.83 in 10.0 mi SSW 16.1 mph - N/A   Overcast
10:51 AM 68.0 °F 57.0 °F 68% 29.82 in 10.0 mi SSW 13.8 mph 21.9 mph N/A   Overcast
11:51 AM 70.0 °F 57.0 °F 63% 29.81 in 10.0 mi SSW 21.9 mph 32.2 mph N/A   Mostly Cloudy
12:51 PM 72.0 °F 55.9 °F 57% 29.81 in 10.0 mi SW 20.7 mph 29.9 mph N/A   Overcast
1:51 PM 72.0 °F 55.9 °F 57% 29.81 in 10.0 mi SW 13.8 mph 26.5 mph N/A   Overcast
2:51 PM 71.1 °F 54.0 °F 55% 29.80 in 10.0 mi WSW 21.9 mph 31.1 mph N/A   Overcast
3:51 PM 69.1 °F 55.9 °F 63% 29.80 in 10.0 mi SW 21.9 mph 29.9 mph 0.00 in Rain Light Rain
4:38 PM 62.1 °F 57.0 °F 84% 29.84 in 10.0 mi WSW 17.3 mph - 0.01 in   Overcast
4:51 PM 61.0 °F 54.0 °F 78% 29.84 in 10.0 mi West 17.3 mph - 0.01 in   Overcast
5:51 PM 57.0 °F 52.0 °F 83% 29.86 in 10.0 mi SW 12.7 mph 26.5 mph 0.03 in   Mostly Cloudy
6:51 PM 55.0 °F 48.9 °F 80% 29.87 in 10.0 mi SW 9.2 mph - N/A   Mostly Cloudy
7:51 PM 55.0 °F 48.9 °F 80% 29.90 in 10.0 mi SW 11.5 mph - N/A   Mostly Cloudy
8:51 PM 54.0 °F 48.0 °F 80% 29.93 in 10.0 mi WSW 11.5 mph - N/A   Mostly Cloudy
9:51 PM 53.1 °F 46.0 °F 77% 29.95 in 10.0 mi SW 9.2 mph - N/A   Mostly Cloudy
10:51 PM 51.8 °F 44.6 °F 76% 29.96 in 10.0 mi SW 10.4 mph - N/A   Mostly Cloudy
11:51 PM 51.1 °F 42.1 °F 71% 29.97 in 10.0 mi SW 6.9 mph - N/A   Mostly Cloudy